Вернуться в каталог

STARLINK-37053

АктивенСвязьSSO
NORAD 68159·PAYLOAD·🇺🇸 United States

Запущен Mar 13, 2026 с Vandenberg Space Force Base

Loading…

Ближайшие Пролёты (ближайшие 24 часа)

TLE

СвежийSource: CelesTrak SupGP

Эпоха: Sep 15, 2026, 02:44 UTC

1 68159C 26049T   26258.11437500 -.00035402  00000+0 -10990-2 0  2588
2 68159  97.2835 278.1497 0001291  88.6421 345.5421 15.33456561    19

Отслеживайте STARLINK-37053 в реальном времени с AllMySat

Download on the App Store